SA7AHC Weather Reports


Display with metric or nautical units.
time (UTC)temp
F
wind
direction
speed
MPH
gust
MPH
rain 1hr
in
rain 24hr
in
rain mn
in
humidity
%
barometer
mb
20260502130310 73 157 11.0 22.0 0.00 0.00 0.00 30 1016.7
20260502123307 74 210 7.0 15.0 0.00 0.00 0.00 32 1017.2
20260502122309 73 275 10.0 25.0 0.00 0.00 0.00 34 1017.2
20260502121306 73 211 10.0 23.0 0.00 0.00 0.00 32 1017.3
20260502120309 74 185 6.0 15.0 0.00 0.00 0.00 32 1017.8
20260502115308 73 270 9.0 18.0 0.00 0.00 0.00 33 1017.8
20260502114306 73 251 9.0 19.0 0.00 0.00 0.00 32 1017.9
20260502113309 72 211 8.0 19.0 0.00 0.00 0.00 35 1018.1
20260502112307 71 225 8.0 19.0 0.00 0.00 0.00 35 1018.1
20260502111309 71 259 9.0 22.0 0.00 0.00 0.00 37 1018.3
20260502110306 71 224 8.0 16.0 0.00 0.00 0.00 36 1018.5
20260502105306 71 250 7.0 25.0 0.00 0.00 0.00 35 1018.5
20260502104308 70 235 10.0 23.0 0.00 0.00 0.00 36 1018.8
20260502103304 70 274 8.0 22.0 0.00 0.00 0.00 35 1019.1
20260502102306 70 269 7.0 15.0 0.00 0.00 0.00 36 1019.1
20260502101304 69 262 8.0 16.0 0.00 0.00 0.00 37 1019.2
20260502100305 69 195 7.0 19.0 0.00 0.00 0.00 40 1019.6
20260502091253 67 214 7.0 18.0 0.00 0.00 0.00 41 1019.8
20260502090255 67 224 7.0 19.0 0.00 0.00 0.00 41 1019.9
20260502071238 59 254 6.0 13.0 0.00 0.00 0.00 54 1020.7
20260502070232 59 218 4.0 10.0 0.00 0.00 0.00 55 1020.7
20260502065234 58 254 4.0 9.0 0.00 0.00 0.00 57 1020.7
20260502064232 57 171 3.0 7.0 0.00 0.00 0.00 57 1020.7
20260502063233 56 242 5.0 10.0 0.00 0.00 0.00 59 1020.7
20260502062229 55 218 4.0 8.0 0.00 0.00 0.00 59 1020.9
20260502061232 54 222 4.0 9.0 0.00 0.00 0.00 60 1020.8
20260502060236 53 256 5.0 9.0 0.00 0.00 0.00 61 1020.9
20260502055228 53 211 4.0 9.0 0.00 0.00 0.00 62 1020.9
20260502054223 52 240 5.0 8.0 0.00 0.00 0.00 63 1020.9
20260502053221 51 255 5.0 10.0 0.00 0.00 0.00 64 1020.7
20260502052222 50 245 4.0 7.0 0.00 0.00 0.00 65 1020.9
20260502051222 49 234 5.0 9.0 0.00 0.00 0.00 66 1020.8
20260502050226 48 247 3.0 8.0 0.00 0.00 0.00 70 1021.0
20260502045226 47 219 3.0 7.0 0.00 0.00 0.00 72 1021.0
20260502044221 45 240 2.0 5.0 0.00 0.00 0.00 74 1020.9
20260502043222 45 225 3.0 6.0 0.00 0.00 0.00 74 1020.8
20260502042219 44 221 2.0 6.0 0.00 0.00 0.00 75 1020.7
20260502041219 44 219 3.0 5.0 0.00 0.00 0.00 74 1020.7
20260502040216 44 238 3.0 6.0 0.00 0.00 0.00 73 1020.9
20260502035218 44 229 3.0 6.0 0.00 0.00 0.00 74 1020.9
20260502034219 43 202 3.0 8.0 0.00 0.00 0.00 74 1020.9
20260502033213 43 240 3.0 6.0 0.00 0.00 0.00 74 1020.8
20260502032215 43 218 2.0 6.0 0.00 0.00 0.00 73 1021.1
20260502031210 44 224 3.0 8.0 0.00 0.00 0.00 73 1021.1
20260502030213 44 256 2.0 6.0 0.00 0.00 0.00 73 1021.1
20260502025212 43 187 2.0 5.0 0.00 0.00 0.00 73 1021.3
20260502024206 43 229 2.0 6.0 0.00 0.00 0.00 73 1021.3
20260502023208 43 235 3.0 6.0 0.00 0.00 0.00 73 1021.3
20260502022207 43 212 2.0 5.0 0.00 0.00 0.00 73 1021.3
20260502020208 44 222 3.0 7.0 0.00 0.00 0.00 71 1021.6
20260502015206 44 239 3.0 6.0 0.00 0.00 0.00 71 1021.8
20260502014206 44 234 3.0 6.0 0.00 0.00 0.00 72 1021.8
20260502013205 44 220 2.0 6.0 0.00 0.00 0.00 72 1021.8
20260502012206 44 213 2.0 5.0 0.00 0.00 0.00 74 1022.0
20260502011205 44 216 3.0 7.0 0.00 0.00 0.00 74 1022.0
20260502010206 43 229 2.0 6.0 0.00 0.00 0.00 74 1022.0
20260502005206 43 261 0.0 5.0 0.00 0.00 0.00 75 1022.2
20260502004205 43 263 0.0 0.0 0.00 0.00 0.00 75 1022.2
20260502003146 42 263 0.0 1.0 0.00 0.00 0.00 75 1022.3
20260502002139 42 263 0.0 0.0 0.00 0.00 0.00 74 1022.4
20260502001133 43 263 0.0 3.0 0.00 0.00 0.00 74 1022.4
20260502000132 43 263 0.0 0.0 0.00 0.00 0.00 73 1022.5
20260501235132 43 263 0.0 1.0 0.00 0.00 0.00 73 1022.8
20260501234122 43 263 0.0 2.0 0.00 0.00 0.00 73 1022.8
20260501233122 43 263 0.0 0.0 0.00 0.00 0.00 73 1023.0
20260501232109 43 263 1.0 3.0 0.00 0.00 0.00 72 1023.0
20260501231112 43 263 1.0 4.0 0.00 0.00 0.00 72 1023.0
20260501230110 44 264 1.0 4.0 0.00 0.00 0.00 71 1023.1
20260501225107 44 234 1.0 4.0 0.00 0.00 0.00 71 1023.2
20260501224109 44 231 0.0 2.0 0.00 0.00 0.00 70 1023.2
20260501223106 45 231 1.0 2.0 0.00 0.00 0.00 69 1023.3
20260501222110 45 231 1.0 4.0 0.00 0.00 0.00 67 1023.3
20260501221106 46 228 2.0 4.0 0.00 0.00 0.00 67 1023.4
20260501220106 46 239 1.0 4.0 0.00 0.00 0.00 66 1023.5
20260501215109 47 238 2.0 5.0 0.00 0.00 0.00 65 1023.6
20260501214035 47 255 2.0 4.0 0.00 0.00 0.00 63 1023.7
20260501213038 49 257 1.0 3.0 0.00 0.00 0.00 59 1023.8
20260501212035 50 258 3.0 6.0 0.00 0.00 0.00 58 1023.7
20260501211037 51 223 4.0 7.0 0.00 0.00 0.00 57 1023.7
20260501210034 51 217 4.0 6.0 0.00 0.00 0.00 58 1023.8
20260501205034 50 229 3.0 5.0 0.00 0.00 0.00 59 1023.8
20260501204035 51 207 2.0 5.0 0.00 0.00 0.00 58 1023.8
20260501203034 52 258 2.0 5.0 0.00 0.00 0.00 57 1024.0
20260501202034 52 261 2.0 6.0 0.00 0.00 0.00 56 1024.0
20260501201032 53 243 2.0 5.0 0.00 0.00 0.00 54 1024.1
20260501200032 53 221 2.0 6.0 0.00 0.00 0.00 53 1024.1
20260501195034 55 260 2.0 6.0 0.00 0.00 0.00 50 1024.2
20260501194036 56 256 3.0 7.0 0.00 0.00 0.00 49 1024.3
20260501193033 56 238 3.0 6.0 0.00 0.00 0.00 50 1024.4
20260501192037 57 268 1.0 4.0 0.00 0.00 0.00 50 1024.3
20260501191034 58 244 2.0 5.0 0.00 0.00 0.00 46 1024.4
20260501190034 59 244 1.0 5.0 0.00 0.00 0.00 43 1024.5
20260501185032 60 256 2.0 6.0 0.00 0.00 0.00 43 1024.3
20260501184031 61 276 1.0 4.0 0.00 0.00 0.00 42 1024.4
20260501183034 62 277 1.0 4.0 0.00 0.00 0.00 40 1024.5
20260501182047 64 279 0.0 2.0 0.00 0.00 0.00 38 1024.5
20260501181036 65 320 0.0 4.0 0.00 0.00 0.00 36 1024.6
20260501180045 66 281 2.0 5.0 0.00 0.00 0.00 34 1024.5
20260501175047 67 327 2.0 7.0 0.00 0.00 0.00 33 1024.4
20260501174034 67 296 2.0 7.0 0.00 0.00 0.00 32 1024.4
20260501173037 68 297 3.0 9.0 0.00 0.00 0.00 30 1024.6
20260501172031 69 302 4.0 10.0 0.00 0.00 0.00 29 1024.7
20260501171034 69 327 3.0 8.0 0.00 0.00 0.00 28 1024.8
20260501170036 70 304 4.0 10.0 0.00 0.00 0.00 27 1024.9
20260501165036 71 297 5.0 9.0 0.00 0.00 0.00 27 1024.9
20260501164032 71 308 4.0 9.0 0.00 0.00 0.00 27 1025.0
20260501163034 71 264 4.0 8.0 0.00 0.00 0.00 26 1025.2
20260501162029 72 209 4.0 12.0 0.00 0.00 0.00 25 1025.1
20260501161033 72 342 5.0 11.0 0.00 0.00 0.00 25 1025.1
20260501160032 72 331 5.0 11.0 0.00 0.00 0.00 26 1025.2
20260501155027 73 298 6.0 15.0 0.00 0.00 0.00 24 1025.4
20260501154032 73 282 5.0 12.0 0.00 0.00 0.00 24 1025.4
20260501153032 74 311 5.0 9.0 0.00 0.00 0.00 24 1025.7
20260501152030 73 302 6.0 13.0 0.00 0.00 0.00 24 1025.7
20260501151032 73 234 7.0 15.0 0.00 0.00 0.00 24 1025.7
20260501150030 74 290 5.0 11.0 0.00 0.00 0.00 24 1025.7